User: anonymous   Login
Location: Unspecified
(43.4680°N, 87.1740°E)
Time: 13:00:45
(UTC+00:00)
Language:

SL-16 R/B - Orbit

View from above orbital plane
View from above orbital plane
View from above satellite
View from above satellite

Ground track
Ground track

The orbit data is extracted from the following two-line orbital elements,

1 28353U 04021B   20098.68830718 -.00000214 +00000-0 -87259-4 0  9992
2 28353 071.0000 087.7400 0002522 071.7908 288.3489 14.14232526817132
Epoch (UTC): 07 April 2020 16:31:09
Eccentricity: 0.0002522
inclination: 71.0000°
perigee height: 843 km
apogee height: 847 km
right ascension of ascending node: 87.7400°
argument of perigee: 71.7908°
revolutions per day: 14.14232526
mean anomaly at epoch: 288.3489°
orbit number at epoch: 81713

The dashed part of the orbit path shows where the satellite is in the earth's shadow,  

DLR